NOAA 16 DEB, 41089

Orbit data source: Space-Track

NOAA 16 DEB, 41089 is space debris in SSO originally from a launch on Thu, 21 Sep 2000 UTC launched from the Air Force Western Test Range (AFWTR). Debris objects in space refer to the collection of defunct objects orbiting the Earth. Examples of debris include non-operational satellites, rocket bodies, and fragments generated from explosions, collisions, or faulty payload assembly.

Loading next visibility...
Identifier
41089, 2000-055AY
Orbit
SSO
Country
Flag of USUS
Related business
Manufacturer
Unknown
Mission
Spacecraft
Bus & Motor
Unknown
Mass
Unknown
Launch date (UTC)
2000-09-21 (25 years ago)
Launch vehicle
Unknown
Launch site
Air Force Western Test Range (AFWTR)
Object type
Payload
Rocket body
Debris
Shape & HBR
Unknown shape, 0.1 m
Radar Cross Section
Small (<0.1 m²)

Expand to show TLE details & history
Last TLE update: 2 days ago

TLE from 2 days ago
0 NOAA 16 DEB
1 41089U 00055AY  25300.17643896  .00005804  00000-0  21921-2 0  9990
2 41089  98.6986  17.2299 0007856 114.6625 245.5377 14.31660413512247
Epoch: 2025-10-27T04:14Z
TLE epoch observation values (Epoch: 2025-10-27T04:14:04.326Z)
Latitude
0.00002°
Longitude
-82.07017°
Altitude
791.452 km
Speed
7.457 km/s
True Right ascension
01h 08m 55s
True Declination
0° 00' 00"
Sunlit
Object was in full shadow at epoch
Visualization orbit readout
Latitude
Unknown
Longitude
Unknown
Altitude
Unknown
Speed
Unknown
Apparent Right ascension
Unknown
Apparent Declination
Unknown
Sunlit
N/A
Visualization observer readout
Local Sidereal Time
16:11:24
Azimuth
Unknown
Elevation
Unknown
Doppler factor
Unknown
Orbital elements
Apogee altitude
788.955 km
Perigee altitude
777.703 km
Semi-major axis
7,161.466 km
Eccentricity
0.00079
Inclination
98.6986°
RAAN
17.2299°
Arg. of periapsis
114.6625°
True anomaly
245.45579°
Mean anomaly
245.5377°
Eccentric anomaly
245.49674°
Mean motion
3.5813 °/min
Orbital period
100.52 mins
BSTAR
0.0021921
Loading maneuver chart data...
Computing Atmospheric mass density...
Loading historical data...
Loading historical data...
Loading historical data...
Loading historical data...
Loading historical data...
Loading historical data...
Loading historical data...

Documentation

Showing up to 5 results
|